VLG1SE LIRQ-LFPO

Flight info

Callsign VLG1SE
Flight time N/A
Altitude 36000
Route BIBNO DCT BEROK DCT ELBUK DCT EVANO DCT CERVI DCT MOLUS DCT UNKIR DCT DJL
Aircraft A319/M-SDFGHILORVWXY/LB1

Departure

Time 2026-05-01 15:22
Airport Florence Airport, Peretola (LIRQ)

Arrival

Time N/A
Airport Paris-Orly Airport (LFPO)
Time Latitude Longitude Altitude Speed Heading
2026-05-01 14:48 43.80341 11.19883 140 ft 0 kts 202°
2026-05-01 15:17 43.80336 11.19883 139 ft 1 kts 175°
2026-05-01 15:18 43.80357 11.19946 141 ft 4 kts 11°
2026-05-01 15:18 43.80396 11.19936 141 ft 8 kts
2026-05-01 15:19 43.80700 11.20051 138 ft 19 kts 33°
2026-05-01 15:19 43.80906 11.20354 138 ft 23 kts 49°
2026-05-01 15:19 43.81012 11.20517 139 ft 22 kts 49°
2026-05-01 15:20 43.81208 11.20820 143 ft 20 kts 47°
2026-05-01 15:20 43.81300 11.20964 144 ft 19 kts 50°
2026-05-01 15:20 43.81387 11.21102 145 ft 19 kts 49°
2026-05-01 15:21 43.81463 11.21223 145 ft 13 kts 61°
2026-05-01 15:21 43.81501 11.21327 145 ft 6 kts 40°
2026-05-01 15:21 43.81522 11.21308 146 ft 4 kts 252°
2026-05-01 15:21 43.81512 11.21289 146 ft 0 kts 227°
2026-05-01 15:22 43.81054 11.20589 142 ft 123 kts 230°
2026-05-01 15:22 43.80387 11.19567 453 ft 150 kts 228°
2026-05-01 15:22 43.79769 11.18445 1081 ft 148 kts 253°
2026-05-01 15:23 43.79802 11.17122 1610 ft 140 kts 313°
2026-05-01 15:23 43.80487 11.16200 2129 ft 141 kts 324°
2026-05-01 15:23 43.81077 11.15012 2583 ft 161 kts 304°
2026-05-01 15:23 43.81419 11.13444 3007 ft 186 kts 281°
2026-05-01 15:24 43.81396 11.11560 3472 ft 208 kts 270°
2026-05-01 15:24 43.81287 11.09504 3942 ft 228 kts 270°
2026-05-01 15:24 43.81211 11.07278 4609 ft 241 kts 273°
2026-05-01 15:24 43.81180 11.04978 5446 ft 246 kts 275°
2026-05-01 15:25 43.81296 11.02667 6280 ft 244 kts 294°
2026-05-01 15:25 43.82116 11.00773 7193 ft 227 kts 328°
2026-05-01 15:25 43.83421 10.99827 8089 ft 212 kts 355°
2026-05-01 15:25 43.84895 10.99584 8735 ft 221 kts
2026-05-01 15:26 43.86485 10.99568 9325 ft 236 kts
2026-05-01 15:26 43.88194 10.99613 9871 ft 254 kts
2026-05-01 15:26 43.89985 10.99671 10585 ft 265 kts
2026-05-01 15:26 43.91815 10.99703 11515 ft 268 kts
2026-05-01 15:27 43.93688 10.99734 12354 ft 272 kts
2026-05-01 15:27 43.95564 10.99853 13115 ft 277 kts
2026-05-01 15:27 43.97535 10.99992 13562 ft 294 kts
2026-05-01 15:28 44.01790 10.99276 14641 ft 332 kts 339°
2026-05-01 15:28 44.03660 10.97337 15467 ft 346 kts 320°
2026-05-01 15:28 44.05129 10.94687 16191 ft 354 kts 314°
2026-05-01 15:29 44.08034 10.89083 17635 ft 360 kts 314°
2026-05-01 15:29 44.09479 10.86305 18403 ft 361 kts 314°
2026-05-01 15:29 44.12403 10.80744 19793 ft 365 kts 314°
2026-05-01 15:30 44.15418 10.75039 21117 ft 370 kts 314°
2026-05-01 15:31 44.21547 10.63365 23567 ft 381 kts 313°
2026-05-01 15:31 44.24672 10.57393 24852 ft 383 kts 313°
2026-05-01 15:32 44.27800 10.51397 26003 ft 386 kts 313°
2026-05-01 15:32 44.30965 10.45328 27013 ft 392 kts 313°
2026-05-01 15:33 44.35767 10.36072 28429 ft 399 kts 313°
2026-05-01 15:34 44.40676 10.26553 29696 ft 407 kts 312°